Weather History for Houston Intercontinental, TX

Change the Weather History Date:

Sunday, June 5, 2011

  Actual Average Record
Temperature  
Mean Temperature 88 °F -  
Max Temperature 105 °F 88 °F 105 °F (2011)
Min Temperature 75 °F 70 °F 68 °F (1997)
Cooling Degree Days 24    
Growing Degree Days 38 (Base 50)    
Moisture  
Dew Point 64 °F    
Average Humidity 50    
Maximum Humidity 74    
Minimum Humidity 25    
Precipitation  
Precipitation 0.00 in - - ()
Sea Level Pressure  
Sea Level Pressure 30.03 in    
Wind  
Wind Speed 4 mph (NNW)    
Max Wind Speed 14 mph    
Max Gust Speed 21 mph    
Visibility 10 miles    
Events Thunderstorm    
Averages and records for this station are not official NWS values.
T = Trace of Precipitation, MM = Missing Value Source: NWS Daily Summary

Daily Weather History Graph

Daily Weather History Graph

Search for Another Location

Airport:

Trip Planner

Search our weather history database for the weather conditions in past years. The results will help you decide how hot, cold, wet, or windy it might be!

Date:

Astronomy

Jun. 05, 2011 Rise Set
Actual Time 6:20 AM CDT 8:19 PM CDT
Civil Twilight 5:52 AM CDT 8:46 PM CDT
Nautical Twilight 5:19 AM CDT 9:19 PM CDT
Astronomical Twilight 4:44 AM CDT 9:55 PM CDT
Moon 9:52 AM CDT (6/5) 11:35 PM CDT (6/5)
Length of Visible Light 14h 54m
Length of Day
13h 59m
Waxing Crescent, 16% of the Moon is Illuminated
Jun 5
Waxing Crescent
Jun 8
First Quarter
Jun 15
Full
Jun 23
Last Quarter
Jul 1
New

Hourly Weather History & Observations

Time (CDT) Temp. Heat Index Dew Point Humidity Pressure Visibility Wind Dir Wind Speed Gust Speed Precip Events Conditions
12:53 AM 79.0 °F - 64.0 °F 60% 30.09 in 10.0 mi Calm Calm - N/A   Clear
1:53 AM 77.0 °F - 64.9 °F 66% 30.08 in 10.0 mi Calm Calm - N/A   Clear
2:53 AM 78.1 °F - 66.0 °F 66% 30.07 in 10.0 mi Calm Calm - N/A   Clear
3:53 AM 77.0 °F - 66.0 °F 69% 30.07 in 10.0 mi Calm Calm - N/A   Partly Cloudy
4:53 AM 77.0 °F - 66.9 °F 71% 30.09 in 10.0 mi West 3.5 mph - N/A   Scattered Clouds
5:53 AM 77.0 °F - 66.9 °F 71% 30.09 in 10.0 mi WNW 4.6 mph - N/A   Mostly Cloudy
6:53 AM 75.9 °F - 66.9 °F 74% 30.10 in 10.0 mi WNW 4.6 mph - N/A   Scattered Clouds
7:53 AM 79.0 °F - 66.9 °F 66% 30.11 in 10.0 mi NNW 3.5 mph - N/A   Overcast
8:53 AM 82.0 °F 84.9 °F 68.0 °F 62% 30.11 in 10.0 mi NW 4.6 mph - N/A   Scattered Clouds
9:53 AM 88.0 °F 89.6 °F 64.9 °F 46% 30.10 in 10.0 mi North 4.6 mph - N/A   Partly Cloudy
10:53 AM 93.0 °F 93.8 °F 62.1 °F 36% 30.09 in 10.0 mi North 3.5 mph - N/A   Scattered Clouds
11:53 AM 97.0 °F 99.9 °F 64.9 °F 35% 30.08 in 10.0 mi NE 10.4 mph - N/A   Scattered Clouds
12:53 PM 97.0 °F 99.9 °F 64.9 °F 35% 30.06 in 10.0 mi SE 8.1 mph - N/A   Mostly Cloudy
1:53 PM 99.0 °F 101.7 °F 64.0 °F 32% 30.03 in 10.0 mi Variable 4.6 mph - N/A   Scattered Clouds
2:53 PM 100.9 °F 102.7 °F 62.1 °F 28% 30.00 in 10.0 mi Variable 3.5 mph - N/A   Scattered Clouds
3:53 PM 102.9 °F 104.8 °F 62.1 °F 26% 29.97 in 10.0 mi North 10.4 mph - N/A   Scattered Clouds
4:53 PM 99.0 °F 98.6 °F 59.0 °F 26% 29.95 in 10.0 mi NE 12.7 mph - N/A   Scattered Clouds
5:53 PM 100.9 °F 101.0 °F 59.0 °F 25% 29.94 in 10.0 mi North 8.1 mph - N/A   Scattered Clouds
6:53 PM 91.9 °F 91.8 °F 61.0 °F 35% 29.96 in 10.0 mi SSW 6.9 mph - N/A   Mostly Cloudy
7:13 PM 91.4 °F 91.4 °F 60.8 °F 36% 29.97 in 10.0 mi East 13.8 mph 20.7 mph N/A Thunderstorm Thunderstorm
7:53 PM 84.0 °F 86.3 °F 66.0 °F 55% 29.96 in 10.0 mi WSW 5.8 mph - 0.00 in Thunderstorm Thunderstorm
8:17 PM 86.0 °F 87.3 °F 64.4 °F 48% 29.96 in 10.0 mi SW 8.1 mph - N/A   Mostly Cloudy
8:53 PM 82.9 °F 85.4 °F 66.9 °F 58% 29.99 in 10.0 mi Calm Calm - N/A   Mostly Cloudy
9:53 PM 84.9 °F 86.6 °F 64.9 °F 51% 30.01 in 10.0 mi North 13.8 mph 17.3 mph N/A   Mostly Cloudy
10:53 PM 82.0 °F 83.8 °F 64.9 °F 56% 30.00 in 10.0 mi WSW 4.6 mph - N/A   Mostly Cloudy
11:45 PM 80.6 °F 82.7 °F 66.2 °F 61% 30.00 in 10.0 mi Calm Calm - N/A Thunderstorm Thunderstorm
11:53 PM 80.1 °F 82.1 °F 66.0 °F 62% 30.00 in 10.0 mi Calm Calm - N/A Thunderstorm Thunderstorm